THY1GF LTFM-CYYZ

Flight info

Callsign THY1GF
Flight time N/A
Altitude 28000
Route TUDBU1D/35L TUDBU Q26 ETUBA T226 NAVOD DCT MOPUG DCT BEGLA/N0492F300 DCT DITIS DCT SOPGA DCT VARIK L602 PEROX Z715 UNAVI Z93 KODUK/N0451F240 Z93 ETOLU/N0464F260 Z719 BIBTA/N0451F240 N850 GISEM Z505 ARPEG/N0486F300 Z850 HMM L602 MIMVA DCT OTBED Y70 GOLES/N0451F240 L975 DESIG L70 PENIL/N0488F300 M144 BAGSO DCT DOGAL/M084F320 DCT 54N020W 53N030W 5130N04000W 50N050W DCT ELSIR/N0487F320 N412A MIILS/N0485F340 DCT VILRO DCT SAVEX Q806 TUKIR IMEBA9
Aircraft B77L/H-SDE1E2E3FGHIJ2J3J4J5M1RWXY/LB1D1

Departure

Time 2026-05-06 22:23
Airport İstanbul Airport (LTFM)

Arrival

Time N/A
Airport Toronto Pearson International Airport (CYYZ)
Time Latitude Longitude Altitude Speed Heading
2026-05-06 21:58 41.27503 28.72087 335 ft 0 kts 269°
2026-05-06 22:10 41.27504 28.72113 336 ft 4 kts 268°
2026-05-06 22:10 41.27505 28.72149 333 ft 4 kts 267°
2026-05-06 22:10 41.27506 28.72184 333 ft 4 kts 267°
2026-05-06 22:10 41.27507 28.72214 333 ft 2 kts 268°
2026-05-06 22:11 41.27509 28.72248 333 ft 4 kts 249°
2026-05-06 22:11 41.27522 28.72268 333 ft 3 kts 180°
2026-05-06 22:11 41.27548 28.72268 338 ft 4 kts 179°
2026-05-06 22:11 41.27561 28.72268 337 ft 1 kts 179°
2026-05-06 22:15 41.27556 28.72268 338 ft 0 kts 179°
2026-05-06 22:17 41.27555 28.72268 338 ft 0 kts 179°
2026-05-06 22:17 41.27548 28.72268 334 ft 4 kts 179°
2026-05-06 22:18 41.27473 28.72270 333 ft 17 kts 179°
2026-05-06 22:18 41.27339 28.72272 334 ft 20 kts 179°
2026-05-06 22:18 41.27202 28.72277 337 ft 20 kts 179°
2026-05-06 22:18 41.27066 28.72279 334 ft 20 kts 179°
2026-05-06 22:19 41.26929 28.72282 333 ft 20 kts 179°
2026-05-06 22:19 41.26792 28.72285 336 ft 20 kts 179°
2026-05-06 22:19 41.26655 28.72288 338 ft 20 kts 179°
2026-05-06 22:19 41.26519 28.72293 335 ft 20 kts 179°
2026-05-06 22:20 41.26382 28.72297 334 ft 20 kts 179°
2026-05-06 22:20 41.26257 28.72300 334 ft 16 kts 177°
2026-05-06 22:20 41.26208 28.72354 336 ft 8 kts 102°
2026-05-06 22:20 41.26213 28.72430 335 ft 8 kts 82°
2026-05-06 22:21 41.26220 28.72493 335 ft 5 kts 79°
2026-05-06 22:21 41.26247 28.72520 334 ft 5 kts
2026-05-06 22:21 41.26270 28.72521 333 ft 0 kts
2026-05-06 22:21 41.26322 28.72520 334 ft 32 kts 359°
2026-05-06 22:22 41.26599 28.72515 336 ft 85 kts 359°
2026-05-06 22:22 41.27441 28.72501 334 ft 156 kts 358°
2026-05-06 22:22 41.28731 28.72467 354 ft 210 kts 358°
2026-05-06 22:22 41.30225 28.72413 816 ft 213 kts 353°
2026-05-06 22:23 41.31715 28.72446 1474 ft 216 kts
2026-05-06 22:23 41.33235 28.72557 2105 ft 220 kts
2026-05-06 22:23 41.34786 28.72532 2501 ft 224 kts
2026-05-06 22:23 41.36336 28.72567 2751 ft 226 kts
2026-05-06 22:24 41.37886 28.72556 3057 ft 218 kts 349°
2026-05-06 22:24 41.39290 28.71789 3275 ft 226 kts 335°
2026-05-06 22:24 41.40703 28.70830 3435 ft 231 kts 321°
2026-05-06 22:24 41.41680 28.69165 3690 ft 227 kts 298°
2026-05-06 22:25 41.42604 28.67362 3691 ft 244 kts 303°
2026-05-06 22:25 41.43604 28.65442 3731 ft 259 kts 299°
2026-05-06 22:25 41.44625 28.63495 4352 ft 259 kts 307°
2026-05-06 22:25 41.45779 28.61601 5058 ft 261 kts 309°
2026-05-06 22:26 41.46951 28.59731 5671 ft 264 kts 310°
2026-05-06 22:26 41.48134 28.57844 6323 ft 266 kts 310°